Location: Peterborough
(44.3091°N, 78.3197°W)
Time: 06:55:41
(UTC-04:00)

Vanguard 3 - Pass Details

Date: 23 March 2023
Orbit: 507 x 3246 km, 33.4° (Epoch: 04 June)

Event Time Altitude Azimuth Distance (km) Brightness Sun altitude
Rises 07:05:21 0° 256° (WSW) 7,201 - -1.9°
Exits shadow 07:05:45 - 256° (WSW) 7,118 11.3 -1.8°
Reaches altitude 10° 07:10:23 10° 253° (WSW) 6,168 11.0 -1.0°
Maximum altitude 07:28:48 56° 183° (S) 3,045 10.1 2.3°
Drops below altitude 10° 07:41:13 10° 110° (ESE) 4,318 12.6 4.5°
Sets 07:44:04 0° 106° (ESE) 5,000 13.3 5.0°
